Year,Month,Day,Hour,Minute,Value (Times are PST for temperature in C)
2022,04,27,00,00,3.20
2022,04,27,00,01,3.20
2022,04,27,00,02,3.20
2022,04,27,00,03,3.20
2022,04,27,00,04,3.10
2022,04,27,00,05,3.10
2022,04,27,00,06,3.10
2022,04,27,00,07,3.00
2022,04,27,00,08,3.00
2022,04,27,00,09,2.90
2022,04,27,00,10,2.90
2022,04,27,00,11,2.90
2022,04,27,00,12,2.80
2022,04,27,00,13,2.80
2022,04,27,00,14,2.80
2022,04,27,00,15,2.80
2022,04,27,00,16,2.80
2022,04,27,00,17,2.70
2022,04,27,00,18,2.70
2022,04,27,00,19,2.70
2022,04,27,00,20,2.70
2022,04,27,00,21,2.60
2022,04,27,00,22,2.70
2022,04,27,00,23,2.60
2022,04,27,00,24,2.60
2022,04,27,00,25,2.60
2022,04,27,00,26,2.60
2022,04,27,00,27,2.60
2022,04,27,00,28,2.60
2022,04,27,00,29,2.60
2022,04,27,00,30,2.60
2022,04,27,00,31,2.60
2022,04,27,00,32,2.60
2022,04,27,00,33,2.60
2022,04,27,00,34,2.60
2022,04,27,00,35,2.60
2022,04,27,00,36,2.50
2022,04,27,00,37,2.50
2022,04,27,00,38,2.50
2022,04,27,00,39,2.50
2022,04,27,00,40,2.40
2022,04,27,00,41,2.40
2022,04,27,00,42,2.40
2022,04,27,00,43,2.40
2022,04,27,00,44,2.40
2022,04,27,00,45,2.30
2022,04,27,00,46,2.30
2022,04,27,00,47,2.30
2022,04,27,00,48,2.30
2022,04,27,00,49,2.30
2022,04,27,00,50,2.30
2022,04,27,00,51,2.30
2022,04,27,00,52,2.30
2022,04,27,00,53,2.30
2022,04,27,00,54,2.30
2022,04,27,00,55,2.30
2022,04,27,00,56,2.20
2022,04,27,00,57,2.20
2022,04,27,00,58,2.20
2022,04,27,00,59,2.20
2022,04,27,01,00,2.20
2022,04,27,01,01,2.20
2022,04,27,01,02,2.20
2022,04,27,01,03,2.20
2022,04,27,01,04,2.20
2022,04,27,01,05,2.10
2022,04,27,01,06,2.10
2022,04,27,01,07,2.10
2022,04,27,01,08,2.10
2022,04,27,01,09,2.10
2022,04,27,01,10,2.10
2022,04,27,01,11,2.00
2022,04,27,01,12,2.00
2022,04,27,01,13,2.00
2022,04,27,01,14,2.00
2022,04,27,01,15,2.00
2022,04,27,01,16,2.00
2022,04,27,01,17,2.00
2022,04,27,01,18,2.00
2022,04,27,01,19,2.00
2022,04,27,01,20,2.00
2022,04,27,01,21,2.00
2022,04,27,01,22,1.90
2022,04,27,01,23,1.90
2022,04,27,01,24,1.90
2022,04,27,01,25,1.90
2022,04,27,01,26,1.80
2022,04,27,01,27,1.80
2022,04,27,01,28,1.80
2022,04,27,01,29,1.80
2022,04,27,01,30,1.80
2022,04,27,01,31,1.80
2022,04,27,01,32,1.70
2022,04,27,01,33,1.70
2022,04,27,01,34,1.70
2022,04,27,01,35,1.70
2022,04,27,01,36,1.70
2022,04,27,01,37,1.70
2022,04,27,01,38,1.60
2022,04,27,01,39,1.60
2022,04,27,01,40,1.60
2022,04,27,01,41,1.60
2022,04,27,01,42,1.60
2022,04,27,01,43,1.50
2022,04,27,01,44,1.50
2022,04,27,01,45,1.50
2022,04,27,01,46,1.40
2022,04,27,01,47,1.40
2022,04,27,01,48,1.40
2022,04,27,01,49,1.40
2022,04,27,01,50,1.40
2022,04,27,01,51,1.30
2022,04,27,01,52,1.30
2022,04,27,01,53,1.30
2022,04,27,01,54,1.30
2022,04,27,01,55,1.30
2022,04,27,01,56,1.30
2022,04,27,01,57,1.30
2022,04,27,01,58,1.30
2022,04,27,01,59,1.30
2022,04,27,02,00,1.30
2022,04,27,02,01,1.40
2022,04,27,02,02,1.40
2022,04,27,02,03,1.40
2022,04,27,02,04,1.30
2022,04,27,02,05,1.30
2022,04,27,02,06,1.30
2022,04,27,02,07,1.30
2022,04,27,02,08,1.30
2022,04,27,02,09,1.40
2022,04,27,02,10,1.40
2022,04,27,02,11,1.40
2022,04,27,02,12,1.40
2022,04,27,02,13,1.40
2022,04,27,02,14,1.40
2022,04,27,02,15,1.40
2022,04,27,02,16,1.40
2022,04,27,02,17,1.40
2022,04,27,02,18,1.40
2022,04,27,02,19,1.40
2022,04,27,02,20,1.40
2022,04,27,02,21,1.40
2022,04,27,02,22,1.40
2022,04,27,02,23,1.40
2022,04,27,02,24,1.40
2022,04,27,02,25,1.40
2022,04,27,02,26,1.40
2022,04,27,02,27,1.40
2022,04,27,02,28,1.30
2022,04,27,02,29,1.30
2022,04,27,02,30,1.30
2022,04,27,02,31,1.30
2022,04,27,02,32,1.30
2022,04,27,02,33,1.30
2022,04,27,02,34,1.30
2022,04,27,02,35,1.30
2022,04,27,02,36,1.30
2022,04,27,02,37,1.30
2022,04,27,02,38,1.30
2022,04,27,02,39,1.30
2022,04,27,02,40,1.40
2022,04,27,02,41,1.40
2022,04,27,02,42,1.40
2022,04,27,02,43,1.40
2022,04,27,02,44,1.40
2022,04,27,02,45,1.40
2022,04,27,02,46,1.40
2022,04,27,02,47,1.30
2022,04,27,02,48,1.30
2022,04,27,02,49,1.30
2022,04,27,02,50,1.30
2022,04,27,02,51,1.30
2022,04,27,02,52,1.30
2022,04,27,02,53,1.30
2022,04,27,02,54,1.20
2022,04,27,02,55,1.20
2022,04,27,02,56,1.20
2022,04,27,02,57,1.20
2022,04,27,02,58,1.20
2022,04,27,02,59,1.20
2022,04,27,03,00,1.20
2022,04,27,03,01,1.10
2022,04,27,03,02,1.20
2022,04,27,03,03,1.20
2022,04,27,03,04,1.10
2022,04,27,03,05,1.10
2022,04,27,03,06,1.10
2022,04,27,03,07,1.10
2022,04,27,03,08,1.10
2022,04,27,03,09,1.10
2022,04,27,03,10,1.10
2022,04,27,03,11,1.10
2022,04,27,03,12,1.10
2022,04,27,03,13,1.00
2022,04,27,03,14,1.00
2022,04,27,03,15,1.00
2022,04,27,03,16,1.00
2022,04,27,03,17,0.90
2022,04,27,03,18,0.90
2022,04,27,03,19,0.90
2022,04,27,03,20,0.90
2022,04,27,03,21,0.90
2022,04,27,03,22,0.80
2022,04,27,03,23,0.90
2022,04,27,03,24,0.90
2022,04,27,03,25,0.90
2022,04,27,03,26,0.90
2022,04,27,03,27,0.90
2022,04,27,03,28,0.90
2022,04,27,03,29,0.90
2022,04,27,03,30,0.90
2022,04,27,03,31,1.00
2022,04,27,03,32,1.00
2022,04,27,03,33,1.10
2022,04,27,03,34,1.10
2022,04,27,03,35,1.10
2022,04,27,03,36,1.10
2022,04,27,03,37,1.10
2022,04,27,03,38,1.10
2022,04,27,03,39,1.10
2022,04,27,03,40,1.10
2022,04,27,03,41,1.10
2022,04,27,03,42,1.10
2022,04,27,03,43,1.10
2022,04,27,03,44,1.00
2022,04,27,03,45,1.00
2022,04,27,03,46,1.00
2022,04,27,03,47,1.00
2022,04,27,03,48,0.90
2022,04,27,03,49,0.90
2022,04,27,03,50,0.90
2022,04,27,03,51,0.90
2022,04,27,03,52,0.90
2022,04,27,03,53,0.90
2022,04,27,03,54,1.00
2022,04,27,03,55,1.00
2022,04,27,03,56,1.00
2022,04,27,03,57,1.00
2022,04,27,03,58,1.00
2022,04,27,03,59,0.90
2022,04,27,04,00,0.90
2022,04,27,04,01,0.90
2022,04,27,04,02,0.90
2022,04,27,04,03,0.90
2022,04,27,04,04,0.90
2022,04,27,04,05,0.90
2022,04,27,04,06,0.90
2022,04,27,04,07,0.90
2022,04,27,04,08,1.00
2022,04,27,04,09,1.00
2022,04,27,04,10,1.00
2022,04,27,04,11,1.10
2022,04,27,04,12,1.10
2022,04,27,04,13,1.10
2022,04,27,04,14,1.10
2022,04,27,04,15,1.10
2022,04,27,04,16,1.10
2022,04,27,04,17,1.10
2022,04,27,04,18,1.10
2022,04,27,04,19,1.10
2022,04,27,04,20,1.10
2022,04,27,04,21,1.10
2022,04,27,04,22,1.10
2022,04,27,04,23,1.10
2022,04,27,04,24,1.10
2022,04,27,04,25,1.10
2022,04,27,04,26,1.10
2022,04,27,04,27,1.10
2022,04,27,04,28,1.10
2022,04,27,04,29,1.10
2022,04,27,04,30,1.00
2022,04,27,04,31,1.00
2022,04,27,04,32,1.00
2022,04,27,04,33,1.00
2022,04,27,04,34,1.00
2022,04,27,04,35,1.00
2022,04,27,04,36,1.00
2022,04,27,04,37,0.90
2022,04,27,04,38,0.90
2022,04,27,04,39,0.90
2022,04,27,04,40,0.90
2022,04,27,04,41,0.90
2022,04,27,04,42,0.90
2022,04,27,04,43,0.90
2022,04,27,04,44,0.90
2022,04,27,04,45,0.90
2022,04,27,04,46,0.80
2022,04,27,04,47,0.80
2022,04,27,04,48,0.80
2022,04,27,04,49,0.80
2022,04,27,04,50,0.80
2022,04,27,04,51,0.80
2022,04,27,04,52,0.80
2022,04,27,04,53,0.80
2022,04,27,04,54,0.80
2022,04,27,04,55,0.80
2022,04,27,04,56,0.80
2022,04,27,04,57,0.80
2022,04,27,04,58,0.80
2022,04,27,04,59,0.80
2022,04,27,05,00,0.80
2022,04,27,05,01,0.80
2022,04,27,05,02,0.80
2022,04,27,05,03,0.80
2022,04,27,05,04,0.80
2022,04,27,05,05,0.80
2022,04,27,05,06,0.80
2022,04,27,05,07,0.80
2022,04,27,05,08,0.80
2022,04,27,05,09,0.80
2022,04,27,05,10,0.80
2022,04,27,05,11,0.80
2022,04,27,05,12,0.80
2022,04,27,05,13,0.80
2022,04,27,05,14,0.80
2022,04,27,05,15,0.80
2022,04,27,05,16,0.80
2022,04,27,05,17,0.80
2022,04,27,05,18,0.90
2022,04,27,05,19,0.90
2022,04,27,05,20,0.90
2022,04,27,05,21,0.90
2022,04,27,05,22,1.00
2022,04,27,05,23,1.10
2022,04,27,05,24,1.10
2022,04,27,05,25,1.20
2022,04,27,05,26,1.20
2022,04,27,05,27,1.20
2022,04,27,05,28,1.30
2022,04,27,05,29,1.30
2022,04,27,05,30,1.30
2022,04,27,05,31,1.30
2022,04,27,05,32,1.30
2022,04,27,05,33,1.40
2022,04,27,05,34,1.40
2022,04,27,05,35,1.40
2022,04,27,05,36,1.40
2022,04,27,05,37,1.40
2022,04,27,05,38,1.50
2022,04,27,05,39,1.50
2022,04,27,05,40,1.50
2022,04,27,05,41,1.60
2022,04,27,05,42,1.60
2022,04,27,05,43,1.60
2022,04,27,05,44,1.70
2022,04,27,05,45,1.70
2022,04,27,05,46,1.70
2022,04,27,05,47,1.70
2022,04,27,05,48,1.70
2022,04,27,05,49,1.70
2022,04,27,05,50,1.70
2022,04,27,05,51,1.70
2022,04,27,05,52,1.70
2022,04,27,05,53,1.70
2022,04,27,05,54,1.70
2022,04,27,05,55,1.70
2022,04,27,05,56,1.70
2022,04,27,05,57,1.70
2022,04,27,05,58,1.70
2022,04,27,05,59,1.70
2022,04,27,06,00,1.70
2022,04,27,06,01,1.70
2022,04,27,06,02,1.70
2022,04,27,06,03,1.80
2022,04,27,06,04,1.80
2022,04,27,06,05,1.80
2022,04,27,06,06,1.80
2022,04,27,06,07,1.80
2022,04,27,06,08,1.90
2022,04,27,06,09,1.90
2022,04,27,06,10,1.90
2022,04,27,06,11,1.90
2022,04,27,06,12,1.90
2022,04,27,06,13,1.90
2022,04,27,06,14,1.90
2022,04,27,06,15,1.90
2022,04,27,06,16,1.90
2022,04,27,06,17,1.90
2022,04,27,06,18,1.90
2022,04,27,06,19,1.90
2022,04,27,06,20,1.90
2022,04,27,06,21,1.90
2022,04,27,06,22,1.90
2022,04,27,06,23,1.90
2022,04,27,06,24,1.90
2022,04,27,06,25,1.90
2022,04,27,06,26,1.90
2022,04,27,06,27,1.90
2022,04,27,06,28,1.90
2022,04,27,06,29,1.90
2022,04,27,06,30,1.90
2022,04,27,06,31,1.90
2022,04,27,06,32,2.00
2022,04,27,06,33,2.00
2022,04,27,06,34,2.00
2022,04,27,06,35,2.00
2022,04,27,06,36,2.00
2022,04,27,06,37,2.00
2022,04,27,06,38,2.10
2022,04,27,06,39,2.10
2022,04,27,06,40,2.10
2022,04,27,06,41,2.10
2022,04,27,06,42,2.10
2022,04,27,06,43,2.10
2022,04,27,06,44,2.10
2022,04,27,06,45,2.10
2022,04,27,06,46,2.10
2022,04,27,06,47,2.10
2022,04,27,06,48,2.20
2022,04,27,06,49,2.20
2022,04,27,06,50,2.20
2022,04,27,06,51,2.30
2022,04,27,06,52,2.30
2022,04,27,06,53,2.30
2022,04,27,06,54,2.40
2022,04,27,06,55,2.40
2022,04,27,06,56,2.40
2022,04,27,06,57,2.50
2022,04,27,06,58,2.50
2022,04,27,06,59,2.50
2022,04,27,07,00,2.50
2022,04,27,07,01,2.50
2022,04,27,07,02,2.60
2022,04,27,07,03,2.60
2022,04,27,07,04,2.60
2022,04,27,07,05,2.60
2022,04,27,07,06,2.60
2022,04,27,07,07,2.60
2022,04,27,07,08,2.60
2022,04,27,07,09,2.70
2022,04,27,07,10,2.70
2022,04,27,07,11,2.70
2022,04,27,07,12,2.80
2022,04,27,07,13,2.80
2022,04,27,07,14,2.80
2022,04,27,07,15,2.90
2022,04,27,07,16,2.90
2022,04,27,07,17,2.90
2022,04,27,07,18,3.00
2022,04,27,07,19,3.00
2022,04,27,07,20,3.00
2022,04,27,07,21,3.10
2022,04,27,07,22,3.10
2022,04,27,07,23,3.20
2022,04,27,07,24,3.20
2022,04,27,07,25,3.30
2022,04,27,07,26,3.40
2022,04,27,07,27,3.40
2022,04,27,07,28,3.50
2022,04,27,07,29,3.50
2022,04,27,07,30,3.50
2022,04,27,07,31,3.60
2022,04,27,07,32,3.60
2022,04,27,07,33,3.60
2022,04,27,07,34,3.60
2022,04,27,07,35,3.70
2022,04,27,07,36,3.70
2022,04,27,07,37,3.80
2022,04,27,07,38,3.80
2022,04,27,07,39,3.80
2022,04,27,07,40,3.90
2022,04,27,07,41,3.90
2022,04,27,07,42,3.90
2022,04,27,07,43,3.90
2022,04,27,07,44,3.90
2022,04,27,07,45,3.90
2022,04,27,07,46,4.00
2022,04,27,07,47,4.00
2022,04,27,07,48,4.00
2022,04,27,07,49,4.10
2022,04,27,07,50,4.10
2022,04,27,07,51,4.20
2022,04,27,07,52,4.20
2022,04,27,07,53,4.20
2022,04,27,07,54,4.20
2022,04,27,07,55,4.30
2022,04,27,07,56,4.30
2022,04,27,07,57,4.30
2022,04,27,07,58,4.30
2022,04,27,07,59,4.30
2022,04,27,08,00,4.40
2022,04,27,08,01,4.40
2022,04,27,08,02,4.40
2022,04,27,08,03,4.40
2022,04,27,08,04,4.40
2022,04,27,08,05,4.40
2022,04,27,08,06,4.40
2022,04,27,08,07,4.40
2022,04,27,08,08,4.50
2022,04,27,08,09,4.50
2022,04,27,08,10,4.50
2022,04,27,08,11,4.60
2022,04,27,08,12,4.60
2022,04,27,08,13,4.70
2022,04,27,08,14,4.70
2022,04,27,08,15,4.80
2022,04,27,08,16,4.80
2022,04,27,08,17,4.80
2022,04,27,08,18,4.80
2022,04,27,08,19,4.90
2022,04,27,08,20,4.90
2022,04,27,08,21,4.90
2022,04,27,08,22,5.00
2022,04,27,08,23,5.10
2022,04,27,08,24,5.10
2022,04,27,08,25,5.10
2022,04,27,08,26,5.20
2022,04,27,08,27,5.20
2022,04,27,08,28,5.30
2022,04,27,08,29,5.30
2022,04,27,08,30,5.30
2022,04,27,08,31,5.40
2022,04,27,08,32,5.40
2022,04,27,08,33,5.40
2022,04,27,08,34,5.40
2022,04,27,08,35,5.50
2022,04,27,08,36,5.60
2022,04,27,08,37,5.60
2022,04,27,08,38,5.70
2022,04,27,08,39,5.70
2022,04,27,08,40,5.80
2022,04,27,08,41,5.80
2022,04,27,08,42,5.90
2022,04,27,08,43,5.90
2022,04,27,08,44,6.00
2022,04,27,08,45,6.10
2022,04,27,08,46,6.10
2022,04,27,08,47,6.20
2022,04,27,08,48,6.30
2022,04,27,08,49,6.40
2022,04,27,08,50,6.50
2022,04,27,08,51,6.60
2022,04,27,08,52,6.70
2022,04,27,08,53,6.70
2022,04,27,08,54,6.90
2022,04,27,08,55,7.10
2022,04,27,08,56,7.30
2022,04,27,08,57,7.40
2022,04,27,08,58,7.40
2022,04,27,08,59,7.50
2022,04,27,09,00,7.60
2022,04,27,09,01,7.70
2022,04,27,09,02,7.70
2022,04,27,09,03,7.80
2022,04,27,09,04,7.80
2022,04,27,09,05,7.80
2022,04,27,09,06,7.80
2022,04,27,09,07,7.80
2022,04,27,09,08,7.80
2022,04,27,09,09,7.80
2022,04,27,09,10,7.80
2022,04,27,09,11,7.80
2022,04,27,09,12,7.90
2022,04,27,09,13,7.90
2022,04,27,09,14,7.80
2022,04,27,09,15,7.80
2022,04,27,09,16,7.70
2022,04,27,09,17,7.70
2022,04,27,09,18,7.70
2022,04,27,09,19,7.70
2022,04,27,09,20,7.80
2022,04,27,09,21,7.80
2022,04,27,09,22,7.90
2022,04,27,09,23,7.90
2022,04,27,09,24,7.90
2022,04,27,09,25,8.00
2022,04,27,09,26,8.00
2022,04,27,09,27,8.10
2022,04,27,09,28,8.10
2022,04,27,09,29,8.20
2022,04,27,09,30,8.30
2022,04,27,09,31,8.40
2022,04,27,09,32,8.60
2022,04,27,09,33,8.60
2022,04,27,09,34,8.70
2022,04,27,09,35,8.60
2022,04,27,09,36,8.60
2022,04,27,09,37,8.60
2022,04,27,09,38,8.70
2022,04,27,09,39,8.70
2022,04,27,09,40,8.60
2022,04,27,09,41,8.50
2022,04,27,09,42,8.50
2022,04,27,09,43,8.50
2022,04,27,09,44,8.50
2022,04,27,09,45,8.50
2022,04,27,09,46,8.50
2022,04,27,09,47,8.50
2022,04,27,09,48,8.50
2022,04,27,09,49,8.60
2022,04,27,09,50,8.60
2022,04,27,09,51,8.60
2022,04,27,09,52,8.70
2022,04,27,09,53,8.80
2022,04,27,09,54,8.80
2022,04,27,09,55,8.70
2022,04,27,09,56,8.70
2022,04,27,09,57,8.70
2022,04,27,09,58,8.80
2022,04,27,09,59,8.80
2022,04,27,10,00,8.80
2022,04,27,10,01,8.90
2022,04,27,10,02,8.90
2022,04,27,10,03,8.90
2022,04,27,10,04,8.90
2022,04,27,10,05,8.90
2022,04,27,10,06,8.90
2022,04,27,10,07,9.00
2022,04,27,10,08,9.00
2022,04,27,10,09,9.00
2022,04,27,10,10,9.10
2022,04,27,10,11,9.10
2022,04,27,10,12,9.10
2022,04,27,10,13,9.10
2022,04,27,10,14,9.10
2022,04,27,10,15,9.10
2022,04,27,10,16,9.00
2022,04,27,10,17,9.00
2022,04,27,10,18,9.00
2022,04,27,10,19,9.10
2022,04,27,10,20,9.30
2022,04,27,10,21,9.40
2022,04,27,10,22,9.70
2022,04,27,10,23,9.90
2022,04,27,10,24,10.10
2022,04,27,10,25,10.30
2022,04,27,10,26,10.50
2022,04,27,10,27,10.60
2022,04,27,10,28,10.60
2022,04,27,10,29,10.60
2022,04,27,10,30,10.50
2022,04,27,10,31,10.40
2022,04,27,10,32,10.30
2022,04,27,10,33,10.20
2022,04,27,10,34,10.10
2022,04,27,10,35,10.20
2022,04,27,10,36,10.30
2022,04,27,10,37,10.40
2022,04,27,10,38,10.40
2022,04,27,10,39,10.40
2022,04,27,10,40,10.40
2022,04,27,10,41,10.50
2022,04,27,10,42,10.50
2022,04,27,10,43,10.50
2022,04,27,10,44,10.50
2022,04,27,10,45,10.60
2022,04,27,10,46,10.70
2022,04,27,10,47,10.70
2022,04,27,10,48,10.70
2022,04,27,10,49,10.70
2022,04,27,10,50,10.60
2022,04,27,10,51,10.60
2022,04,27,10,52,10.70
2022,04,27,10,53,10.90
2022,04,27,10,54,10.90
2022,04,27,10,55,10.90
2022,04,27,10,56,10.90
2022,04,27,10,57,10.90
2022,04,27,10,58,10.80
2022,04,27,10,59,10.80
2022,04,27,11,00,10.80
2022,04,27,11,01,10.70
2022,04,27,11,02,10.70
2022,04,27,11,03,10.60
2022,04,27,11,04,10.50
2022,04,27,11,05,10.30
2022,04,27,11,06,10.20
2022,04,27,11,07,10.20
2022,04,27,11,08,10.20
2022,04,27,11,09,10.20
2022,04,27,11,10,10.20
2022,04,27,11,11,10.10
2022,04,27,11,12,9.90
2022,04,27,11,13,9.80
2022,04,27,11,14,9.70
2022,04,27,11,15,9.60
2022,04,27,11,16,9.60
2022,04,27,11,17,9.50
2022,04,27,11,18,9.50
2022,04,27,11,19,9.40
2022,04,27,11,20,9.40
2022,04,27,11,21,9.30
2022,04,27,11,22,9.30
2022,04,27,11,23,9.30
2022,04,27,11,24,9.30
2022,04,27,11,25,9.30
2022,04,27,11,26,9.30
2022,04,27,11,27,9.20
2022,04,27,11,28,9.20
2022,04,27,11,29,9.20
2022,04,27,11,30,9.20
2022,04,27,11,31,9.10
2022,04,27,11,32,9.10
2022,04,27,11,33,9.00
2022,04,27,11,34,9.00
2022,04,27,11,35,8.90
2022,04,27,11,36,8.80
2022,04,27,11,37,8.70
2022,04,27,11,38,8.70
2022,04,27,11,39,8.60
2022,04,27,11,40,8.50
2022,04,27,11,41,8.50
2022,04,27,11,42,8.40
2022,04,27,11,43,8.40
2022,04,27,11,44,8.40
2022,04,27,11,45,8.50
2022,04,27,11,46,8.60
2022,04,27,11,47,8.60
2022,04,27,11,48,8.60
2022,04,27,11,49,8.70
2022,04,27,11,50,8.80
2022,04,27,11,51,8.80
2022,04,27,11,52,8.90
2022,04,27,11,53,8.90
2022,04,27,11,54,8.90
2022,04,27,11,55,8.80
2022,04,27,11,56,8.80
2022,04,27,11,57,8.80
2022,04,27,11,58,8.80
2022,04,27,11,59,8.70
2022,04,27,12,00,8.70
2022,04,27,12,01,8.60
2022,04,27,12,02,8.60
2022,04,27,12,03,8.60
2022,04,27,12,04,8.60
2022,04,27,12,05,8.60
2022,04,27,12,06,8.60
2022,04,27,12,07,8.50
2022,04,27,12,08,8.50
2022,04,27,12,09,8.40
2022,04,27,12,10,8.40
2022,04,27,12,11,8.40
2022,04,27,12,12,8.40
2022,04,27,12,13,8.40
2022,04,27,12,14,8.30
2022,04,27,12,15,8.30
2022,04,27,12,16,8.30
2022,04,27,12,17,8.40
2022,04,27,12,18,8.40
2022,04,27,12,19,8.40
2022,04,27,12,20,8.40
2022,04,27,12,21,8.40
2022,04,27,12,22,8.40
2022,04,27,12,23,8.30
2022,04,27,12,24,8.40
2022,04,27,12,25,8.40
2022,04,27,12,26,8.60
2022,04,27,12,27,8.70
2022,04,27,12,28,8.80
2022,04,27,12,29,8.90
2022,04,27,12,30,9.00
2022,04,27,12,31,9.10
2022,04,27,12,32,9.10
2022,04,27,12,33,9.10
2022,04,27,12,34,9.20
2022,04,27,12,35,9.20
2022,04,27,12,36,9.20
2022,04,27,12,37,9.10
2022,04,27,12,38,9.00
2022,04,27,12,39,9.00
2022,04,27,12,40,9.00
2022,04,27,12,41,9.00
2022,04,27,12,42,9.10
2022,04,27,12,43,9.30
2022,04,27,12,44,9.30
2022,04,27,12,45,9.40
2022,04,27,12,46,9.50
2022,04,27,12,47,9.50
2022,04,27,12,48,9.50
2022,04,27,12,49,9.50
2022,04,27,12,50,9.50
2022,04,27,12,51,9.40
2022,04,27,12,52,9.40
2022,04,27,12,53,9.30
2022,04,27,12,54,9.30
2022,04,27,12,55,9.30
2022,04,27,12,56,9.20
2022,04,27,12,57,9.20
2022,04,27,12,58,9.20
2022,04,27,12,59,9.20
2022,04,27,13,00,9.10
2022,04,27,13,01,9.10
2022,04,27,13,02,9.00
2022,04,27,13,03,9.00
2022,04,27,13,04,9.00
2022,04,27,13,05,9.00
2022,04,27,13,06,9.00
2022,04,27,13,07,9.00
2022,04,27,13,08,8.90
2022,04,27,13,09,8.90
2022,04,27,13,10,8.80
2022,04,27,13,11,8.80
2022,04,27,13,12,8.80
2022,04,27,13,13,8.80
2022,04,27,13,14,8.80
2022,04,27,13,15,8.70
2022,04,27,13,16,8.70
2022,04,27,13,17,8.60
2022,04,27,13,18,8.60
2022,04,27,13,19,8.50
2022,04,27,13,20,8.50
2022,04,27,13,21,8.50
2022,04,27,13,22,8.50
2022,04,27,13,23,8.50
2022,04,27,13,24,8.50
2022,04,27,13,25,8.40
2022,04,27,13,26,8.40
2022,04,27,13,27,8.40
2022,04,27,13,28,8.40
2022,04,27,13,29,8.40
2022,04,27,13,30,8.40
2022,04,27,13,31,8.40
2022,04,27,13,32,8.40
2022,04,27,13,33,8.40
2022,04,27,13,34,8.40
2022,04,27,13,35,8.40
2022,04,27,13,36,8.40
2022,04,27,13,37,8.40
2022,04,27,13,38,8.40
2022,04,27,13,39,8.40
2022,04,27,13,40,8.40
2022,04,27,13,41,8.40
2022,04,27,13,42,8.40
2022,04,27,13,43,8.40
2022,04,27,13,44,8.40
2022,04,27,13,45,8.50
2022,04,27,13,46,8.60
2022,04,27,13,47,8.70
2022,04,27,13,48,8.80
2022,04,27,13,49,8.90
2022,04,27,13,50,9.00
2022,04,27,13,51,9.10
2022,04,27,13,52,9.20
2022,04,27,13,53,9.30
2022,04,27,13,54,9.40
2022,04,27,13,55,9.50
2022,04,27,13,56,9.60
2022,04,27,13,57,9.70
2022,04,27,13,58,9.70
2022,04,27,13,59,9.70
2022,04,27,14,00,9.70
2022,04,27,14,01,9.70
2022,04,27,14,02,9.60
2022,04,27,14,03,9.70
2022,04,27,14,04,9.70
2022,04,27,14,05,9.70
2022,04,27,14,06,9.80
2022,04,27,14,07,9.80
2022,04,27,14,08,9.90
2022,04,27,14,09,9.90
2022,04,27,14,10,9.90
2022,04,27,14,11,9.90
2022,04,27,14,12,9.90
2022,04,27,14,13,9.90
2022,04,27,14,14,9.70
2022,04,27,14,15,9.60
2022,04,27,14,16,9.50
2022,04,27,14,17,9.40
2022,04,27,14,18,9.40
2022,04,27,14,19,9.40
2022,04,27,14,20,9.40
2022,04,27,14,21,9.40
2022,04,27,14,22,9.40
2022,04,27,14,23,9.40
2022,04,27,14,24,9.50
2022,04,27,14,25,9.50
2022,04,27,14,26,9.50
2022,04,27,14,27,9.50
2022,04,27,14,28,9.50
2022,04,27,14,29,9.40
2022,04,27,14,30,9.40
2022,04,27,14,31,9.40
2022,04,27,14,32,9.40
2022,04,27,14,33,9.40
2022,04,27,14,34,9.40
2022,04,27,14,35,9.40
2022,04,27,14,36,9.40
2022,04,27,14,37,9.30
2022,04,27,14,38,9.30
2022,04,27,14,39,9.20
2022,04,27,14,40,9.10
2022,04,27,14,41,9.10
2022,04,27,14,42,9.00
2022,04,27,14,43,9.00
2022,04,27,14,44,9.00
2022,04,27,14,45,9.00
2022,04,27,14,46,9.00
2022,04,27,14,47,9.00
2022,04,27,14,48,9.00
2022,04,27,14,49,9.10
2022,04,27,14,50,9.10
2022,04,27,14,51,9.10
2022,04,27,14,52,9.10
2022,04,27,14,53,9.20
2022,04,27,14,54,9.20
2022,04,27,14,55,9.20
2022,04,27,14,56,9.20
2022,04,27,14,57,9.20
2022,04,27,14,58,9.30
2022,04,27,14,59,9.30
2022,04,27,15,00,9.30
2022,04,27,15,01,9.30
2022,04,27,15,02,9.20
2022,04,27,15,03,9.10
2022,04,27,15,04,9.10
2022,04,27,15,05,9.00
2022,04,27,15,06,8.90
2022,04,27,15,07,8.90
2022,04,27,15,08,8.80
2022,04,27,15,09,8.80
2022,04,27,15,10,8.80
2022,04,27,15,11,8.70
2022,04,27,15,12,8.70
2022,04,27,15,13,8.70
2022,04,27,15,14,8.70
2022,04,27,15,15,8.70
2022,04,27,15,16,8.70
2022,04,27,15,17,8.70
2022,04,27,15,18,8.70
2022,04,27,15,19,8.70
2022,04,27,15,20,8.70
2022,04,27,15,21,8.70
2022,04,27,15,22,8.70
2022,04,27,15,23,8.70
2022,04,27,15,24,8.60
2022,04,27,15,25,8.60
2022,04,27,15,26,8.60
2022,04,27,15,27,8.50
2022,04,27,15,28,8.50
2022,04,27,15,29,8.50
2022,04,27,15,30,8.50
2022,04,27,15,31,8.40
2022,04,27,15,32,8.40
2022,04,27,15,33,8.30
2022,04,27,15,34,8.20
2022,04,27,15,35,8.00
2022,04,27,15,36,7.90
2022,04,27,15,37,7.80
2022,04,27,15,38,7.60
2022,04,27,15,39,7.60
2022,04,27,15,40,7.50
2022,04,27,15,41,7.40
2022,04,27,15,42,7.40
2022,04,27,15,43,7.30
2022,04,27,15,44,7.20
2022,04,27,15,45,7.20
2022,04,27,15,46,7.20
2022,04,27,15,47,7.10
2022,04,27,15,48,7.10
2022,04,27,15,49,7.10
2022,04,27,15,50,7.10
2022,04,27,15,51,7.10
2022,04,27,15,52,7.00
2022,04,27,15,53,7.00
2022,04,27,15,54,7.00
2022,04,27,15,55,7.00
2022,04,27,15,56,6.90
2022,04,27,15,57,6.90
2022,04,27,15,58,6.90
2022,04,27,15,59,6.90
2022,04,27,16,00,6.90
2022,04,27,16,01,6.80
2022,04,27,16,02,6.80
2022,04,27,16,03,6.80
2022,04,27,16,04,6.80
2022,04,27,16,05,6.80
2022,04,27,16,06,6.80
2022,04,27,16,07,6.80
2022,04,27,16,08,6.70
2022,04,27,16,09,6.70
2022,04,27,16,10,6.70
2022,04,27,16,11,6.60
2022,04,27,16,12,6.60
2022,04,27,16,13,6.60
2022,04,27,16,14,6.60
2022,04,27,16,15,6.70
2022,04,27,16,16,6.70
2022,04,27,16,17,6.70
2022,04,27,16,18,6.70
2022,04,27,16,19,6.80
2022,04,27,16,20,6.80
2022,04,27,16,21,6.90
2022,04,27,16,22,6.90
2022,04,27,16,23,7.10
2022,04,27,16,24,7.10
2022,04,27,16,25,7.10
2022,04,27,16,26,7.10
2022,04,27,16,27,7.20
2022,04,27,16,28,7.30
2022,04,27,16,29,7.40
2022,04,27,16,30,7.40
2022,04,27,16,31,7.50
2022,04,27,16,32,7.60
2022,04,27,16,33,7.70
2022,04,27,16,34,7.80
2022,04,27,16,35,7.90
2022,04,27,16,36,8.00
2022,04,27,16,37,8.10
2022,04,27,16,38,8.10
2022,04,27,16,39,8.10
2022,04,27,16,40,8.20
2022,04,27,16,41,8.20
2022,04,27,16,42,8.30
2022,04,27,16,43,8.40
2022,04,27,16,44,8.60
2022,04,27,16,45,8.70
2022,04,27,16,46,8.80
2022,04,27,16,47,8.80
2022,04,27,16,48,8.90
2022,04,27,16,49,8.90
2022,04,27,16,50,8.90
2022,04,27,16,51,8.80
2022,04,27,16,52,8.90
2022,04,27,16,53,9.00
2022,04,27,16,54,9.00
2022,04,27,16,55,9.10
2022,04,27,16,56,9.00
2022,04,27,16,57,9.00
2022,04,27,16,58,9.00
2022,04,27,16,59,8.90
2022,04,27,17,00,8.90
2022,04,27,17,01,8.80
2022,04,27,17,02,8.70
2022,04,27,17,03,8.70
2022,04,27,17,04,8.60
2022,04,27,17,05,8.60
2022,04,27,17,06,8.60
2022,04,27,17,07,8.60
2022,04,27,17,08,8.60
2022,04,27,17,09,8.60
2022,04,27,17,10,8.60
2022,04,27,17,11,8.60
2022,04,27,17,12,8.50
2022,04,27,17,13,8.50
2022,04,27,17,14,8.50
2022,04,27,17,15,8.50
2022,04,27,17,16,8.50
2022,04,27,17,17,8.40
2022,04,27,17,18,8.40
2022,04,27,17,19,8.30
2022,04,27,17,20,8.30
2022,04,27,17,21,8.30
2022,04,27,17,22,8.30
2022,04,27,17,23,8.30
2022,04,27,17,24,8.30
2022,04,27,17,25,8.30
2022,04,27,17,26,8.30
2022,04,27,17,27,8.20
2022,04,27,17,28,8.20
2022,04,27,17,29,8.20
2022,04,27,17,30,8.10
2022,04,27,17,31,8.00
2022,04,27,17,32,8.00
2022,04,27,17,33,7.90
2022,04,27,17,34,7.80
2022,04,27,17,35,7.80
2022,04,27,17,36,7.80
2022,04,27,17,37,7.70
2022,04,27,17,38,7.70
2022,04,27,17,39,7.70
2022,04,27,17,40,7.60
2022,04,27,17,41,7.70
2022,04,27,17,42,7.70
2022,04,27,17,43,7.60
2022,04,27,17,44,7.60
2022,04,27,17,45,7.60
2022,04,27,17,46,7.50
2022,04,27,17,47,7.50
2022,04,27,17,48,7.50
2022,04,27,17,49,7.40
2022,04,27,17,50,7.40
2022,04,27,17,51,7.40
2022,04,27,17,52,7.40
2022,04,27,17,53,7.40
2022,04,27,17,54,7.30
2022,04,27,17,55,7.30
2022,04,27,17,56,7.30
2022,04,27,17,57,7.30
2022,04,27,17,58,7.30
2022,04,27,17,59,7.20
2022,04,27,18,00,7.20
2022,04,27,18,01,7.20
2022,04,27,18,02,7.20
2022,04,27,18,03,7.10
2022,04,27,18,04,7.10